Location: Cluj-Napoca
(46.7712°N, 23.6236°E)
Time: 07:37:33
(UTC+02:00)

ISS - Pass Details

Date: 24 January 2021
Orbit: 417 x 422 km, 51.6° (Epoch: 05 March)

Event Time Altitude Azimuth Distance (km) Brightness Sun altitude
Rises 19:47:00 0° 277° (W) 2,372 1.4 -25.5°
Reaches altitude 10° 19:49:13 10° 286° (WNW) 1,509 0.0 -25.9°
Enters shadow 19:50:52 23° 306° (NW) 946 -1.5 -26.1°
